DW1053 Weather Reports


Display with metric or nautical units.
time (UTC)temp
F
wind
direction
speed
MPH
gust
MPH
rain 1hr
in
rain 24hr
in
rain mn
in
humidity
%
barometer
mb
20260504160235 60 300 0.0 1.0 0.05 0.05 0.05 82 1010.0
20260504150207 64 304 1.0 10.0 0.00 0.00 0.00 63 1009.5
20260504140206 67 295 1.0 11.0 0.00 0.00 0.00 53 1009.1
20260504130226 69 316 0.0 1.0 0.00 0.00 0.00 45 1009.1
20260504120207 70 310 1.0 7.0 0.00 0.00 0.00 45 1009.4
20260504110205 68 323 1.0 9.0 0.00 0.00 0.00 44 1009.4
20260504100206 68 323 0.0 4.0 0.00 0.00 0.00 44 1010.0
20260504080208 60 117 0.0 1.0 0.00 0.00 0.00 67 1010.4
20260504070206 56 128 0.0 0.0 0.00 0.00 0.00 73 1010.3
20260504060206 55 126 0.0 3.0 0.00 0.00 0.00 74 1010.0
20260504050208 55 130 0.0 1.0 0.00 0.00 0.00 74 1010.0
20260504040209 53 101 0.0 4.0 0.00 0.00 0.00 76 1009.9
20260504030209 54 119 0.0 0.0 0.00 0.00 0.00 75 1010.4
20260504020206 55 128 0.0 1.0 0.00 0.00 0.00 72 1010.4
20260504010207 56 138 0.0 0.0 0.00 0.00 0.00 65 1010.1
20260504000208 59 138 0.0 0.0 0.00 0.00 0.00 57 1010.4
20260503230210 60 115 0.0 2.0 0.00 0.00 0.00 55 1010.5
20260503210206 62 126 0.0 0.0 0.00 0.00 0.00 49 1010.3
20260503190206 63 346 0.0 0.0 0.00 0.00 0.00 45 1010.2
20260503180207 65 347 0.0 1.0 0.00 0.00 0.00 42 1010.5
20260503170206 66 330 0.0 8.0 0.00 0.00 0.00 37 1011.1